Location: Altenst�hlen
(53.5567°N, 8.9425°E)
Time: 00:33:14
(UTC+00:00)

STARLINK-41 - Pass Details

Date: 23 October 2019
Orbit: 548 x 551 km, 53.0° (Epoch: 13 November)

Event Time Altitude Azimuth Distance (km) Brightness Sun altitude
Rises 16:57:26 0° 268° (W) 2,717 9.5 -7.6°
Reaches altitude 10° 16:59:40 10° 268° (W) 1,824 8.0 -7.9°
Maximum altitude 17:03:49 85° 181° (S) 557 3.6 -8.5°
Enters shadow 17:07:40 12° 92° (E) 1,707 5.5 -9.1°
